Location: *
(37.9500°N, 27.3666°E)
Time: 13:55:37
(UTC+00:00)

CZ-4 R/B - Pass Details

Date: 24 October 2021
Orbit: 530 x 595 km, 97.8° (Epoch: 05 December)

Event Time Altitude Azimuth Distance (km) Brightness Sun altitude
Exits shadow 16:25:15 10° 132° (SE) 1,822 3.6 -13.3°
Maximum altitude 16:28:41 30° 71° (ENE) 1,030 2.1 -14.0°
Drops below altitude 10° 16:32:17 10° 10° (N) 1,895 3.9 -14.7°
Sets 16:34:39 0° 359° (N) 2,809 4.9 -15.2°
